DMSP 5D-2 F11 DEB, 29078

Orbit data source: Space-Track

DMSP 5D-2 F11 DEB, 29078 is space debris in SSO originally from a launch on Thu, 28 Nov 1991 UTC launched from the Air Force Western Test Range (AFWTR). Debris objects in space refer to the collection of defunct objects orbiting the Earth. Examples of debris include non-operational satellites, rocket bodies, and fragments generated from explosions, collisions, or faulty payload assembly.

Loading next visibility...
Identifier
29078, 1991-082BZ
Orbit
SSO
Country
Flag of USUS
Related business
Manufacturer
Unknown
Mission
Spacecraft
Bus & Motor
Unknown
Mass
Unknown
Launch date (UTC)
1991-11-28 (34 years ago)
Launch vehicle
Unknown
Launch site
Air Force Western Test Range (AFWTR)
Object type
Payload
Rocket body
Debris
Shape & HBR
Unknown shape, 0.1 m
Radar Cross Section
Small (<0.1 m²)

Expand to show TLE details & history
Last TLE update: 1 day ago

TLE from 1 day ago
0 DMSP 5D-2 F11 DEB
1 29078U 91082BZ  25349.18516813  .00003965  00000-0  11163-2 0  9999
2 29078  98.6796  71.4737 0017548 181.4625 178.6518 14.46311028594198
Epoch: 2025-12-15T04:26Z
TLE epoch observation values (Epoch: 2025-12-15T04:26:38.526Z)
Latitude
0.00002°
Longitude
-79.27419°
Altitude
753.16 km
Speed
7.471 km/s
True Right ascension
04h 45m 53s
True Declination
0° 00' 00"
Sunlit
Object was in full shadow at epoch
Visualization orbit readout
Latitude
Unknown
Longitude
Unknown
Altitude
Unknown
Speed
Unknown
Apparent Right ascension
Unknown
Apparent Declination
Unknown
Sunlit
N/A
Visualization observer readout
Local Sidereal Time
11:09:56
Azimuth
Unknown
Elevation
Unknown
Doppler factor
Unknown
Orbital elements
Apogee altitude
747.327 km
Perigee altitude
722.363 km
Semi-major axis
7,112.982 km
Eccentricity
0.00175
Inclination
98.6796°
RAAN
71.4737°
Arg. of periapsis
181.4625°
True anomaly
178.65652°
Mean anomaly
178.6518°
Eccentric anomaly
178.65416°
Mean motion
3.61798 °/min
Orbital period
99.5 mins
BSTAR
0.0011163
Loading maneuver chart data...
Computing Atmospheric mass density...

Documentation

Showing up to 5 results
|